Weather History for PHOG - August, 2012

Change the Weather History Date:

Saturday, August 11, 2012

  Actual Average Record
Temperature  
Mean Temperature 79 °F 80 °F  
Max Temperature 85 °F 88 °F 95 °F (1951)
Min Temperature 72 °F 72 °F 63 °F (1971)
Degree Days  
Heating Degree Days 0 0  
Month to date heating degree days 0 0  
Since 1 June heating degree days 0 0  
Since 1 July heating degree days 0 0  
Cooling Degree Days 14 15  
Month to date cooling degree days 155 165  
Year to date cooling degree days 2262 2251  
Since 1 June cooling degree days 937 992  
Growing Degree Days 28 (Base 50)    
Moisture  
Dew Point 66 °F    
Average Humidity 70    
Maximum Humidity 84    
Minimum Humidity 55    
Precipitation  
Precipitation T in 0.02 in 0.55 in (2009)
Month to date precipitation 0.02 0.20  
Year to date precipitation 4.17 10.40  
Snow  
Snow 0.00 in - - ()
Month to date snowfall 0.0  
Since 1 June snowfall 0.0  
Since 1 July snowfall 0.0  
Snow Depth 0.00 in    
Sea Level Pressure  
Sea Level Pressure 30.02 in    
Wind  
Wind Speed 16 mph (NE)    
Max Wind Speed 28 mph    
Max Gust Speed 35 mph    
Visibility 10 miles    
Events      
T = Trace of Precipitation, MM = Missing Value Source: NWS Daily Summary

Daily Weather History Graph

Daily Weather History Graph

Search for Another Location

Airport or City:

Trip Planner

Search our weather history database for the weather conditions in past years. The results will help you decide how hot, cold, wet, or windy it might be!

Date:

Astronomy

Aug. 11, 2012 Rise Set
Actual Time 6:03 AM HST 6:57 PM HST
Civil Twilight 5:40 AM HST 7:20 PM HST
Nautical Twilight 5:13 AM HST 7:48 PM HST
Astronomical Twilight 4:45 AM HST 8:15 PM HST
Moon 12:53 AM HST (8/11) 2:26 PM HST (8/11)
Length of Visible Light 13h 40m
Length of Day
12h 54m
Waning Crescent, 30% of the Moon is Illuminated
Aug 11
Waning Crescent
Aug 17
New
Aug 24
First Quarter
Aug 31
Full
Sep 8
Last Quarter

Hourly Weather History & Observations

Time (HST) Temp. Heat Index Dew Point Humidity Pressure Visibility Wind Dir Wind Speed Gust Speed Precip Events Conditions
12:54 AM 73.0 °F - 66.0 °F 79% 30.05 in 10.0 mi NE 10.4 mph - N/A   Clear
1:54 AM 73.0 °F - 66.9 °F 81% 30.04 in 10.0 mi NNE 10.4 mph - N/A   Clear
2:54 AM 73.9 °F - 66.0 °F 76% 30.03 in 10.0 mi NE 11.5 mph - N/A   Clear
3:54 AM 73.0 °F - 68.0 °F 84% 30.03 in 10.0 mi ENE 13.8 mph - N/A   Scattered Clouds
4:54 AM 73.9 °F - 66.0 °F 76% 30.04 in 10.0 mi NNE 15.0 mph - N/A   Mostly Cloudy
5:54 AM 73.0 °F - 68.0 °F 84% 30.04 in 10.0 mi NE 15.0 mph - 0.00 in   Mostly Cloudy
6:54 AM 73.9 °F - 64.9 °F 73% 30.05 in 10.0 mi NE 8.1 mph - N/A   Scattered Clouds
7:54 AM 78.1 °F - 66.0 °F 66% 30.06 in 10.0 mi NE 10.4 mph 18.4 mph N/A   Scattered Clouds
8:54 AM 80.1 °F 82.1 °F 66.0 °F 62% 30.06 in 10.0 mi NE 15.0 mph 21.9 mph N/A   Scattered Clouds
9:54 AM 82.0 °F 84.5 °F 66.9 °F 60% 30.06 in 10.0 mi NE 16.1 mph 24.2 mph N/A   Scattered Clouds
10:54 AM 82.0 °F 84.9 °F 68.0 °F 62% 30.05 in 10.0 mi NE 19.6 mph - N/A   Scattered Clouds
11:54 AM 84.0 °F 86.5 °F 66.9 °F 56% 30.03 in 10.0 mi NE 25.3 mph - N/A   Scattered Clouds
12:54 PM 84.0 °F 86.5 °F 66.9 °F 56% 30.01 in 10.0 mi NE 23.0 mph 31.1 mph 0.00 in   Scattered Clouds
1:54 PM 82.9 °F 85.8 °F 68.0 °F 60% 29.99 in 10.0 mi NE 26.5 mph 32.2 mph 0.00 in   Scattered Clouds
2:54 PM 84.0 °F 86.5 °F 66.9 °F 56% 29.99 in 10.0 mi NNE 25.3 mph 29.9 mph N/A   Scattered Clouds
3:54 PM 82.0 °F 85.5 °F 69.1 °F 65% 29.98 in 10.0 mi NNE 23.0 mph - 0.00 in   Scattered Clouds
4:54 PM 80.1 °F 82.3 °F 66.9 °F 64% 29.97 in 10.0 mi NE 19.6 mph 27.6 mph N/A   Mostly Cloudy
5:54 PM 78.1 °F - 66.9 °F 68% 29.98 in 10.0 mi ENE 18.4 mph 25.3 mph N/A   Scattered Clouds
6:54 PM 75.9 °F - 66.0 °F 71% 29.99 in 10.0 mi ENE 16.1 mph 25.3 mph N/A   Scattered Clouds
7:54 PM 75.9 °F - 66.0 °F 71% 30.01 in 10.0 mi ENE 17.3 mph 24.2 mph N/A   Mostly Cloudy
8:54 PM 73.9 °F - 64.0 °F 71% 30.03 in 10.0 mi ENE 11.5 mph - N/A   Scattered Clouds
9:54 PM 73.9 °F - 66.0 °F 76% 30.04 in 10.0 mi NE 11.5 mph - N/A   Partly Cloudy
10:54 PM 75.0 °F - 63.0 °F 66% 30.03 in 10.0 mi ENE 10.4 mph - N/A   Mostly Cloudy
11:54 PM 73.9 °F - 64.9 °F 73% 30.02 in 10.0 mi ENE 6.9 mph - N/A   Partly Cloudy